QPF
0.02 0.03 0.03 0.05 0.07 0.07 0.03 0.01 0.00 0.00 0.00 0.00 0.00 0.00 0.01 0.01 0.01 0.01 0.01 0.00 0.00 0.00 0.00 0.00 0.00 0.00 0.00 0.00 0.00 0.00 0.00 0.01 0.01 0.01 0.01 0.01 0.02 0.03 0.04 0.04 0.02 0.01 0.01 0.02 0.02 0.01 0.01 0.01 0.00
0.02 0.04 0.05 0.07 0.06 0.06 0.04 0.01 0.00 0.00 0.00 0.00 0.00 0.00 0.00 0.00 0.01 0.02 0.01 0.00 0.00 0.00 0.00 0.00 0.01 0.01 0.01 0.00 0.00 0.00 0.01 0.01 0.01 0.02 0.02 0.02 0.02 0.03 0.04 0.04 0.02 0.01 0.01 0.02 0.02 0.01 0.00 0.00 0.00
0.04 0.06 0.07 0.07 0.05 0.05 0.04 0.02 0.01 0.01 0.01 0.00 0.01 0.00 0.00 0.01 0.01 0.02 0.01 0.00 0.00 0.00 0.01 0.01 0.01 0.01 0.01 0.01 0.01 0.01 0.01 0.01 0.01 0.02 0.02 0.02 0.02 0.03 0.04 0.03 0.02 0.02 0.02 0.02 0.01 0.00 0.00 0.00 0.00
0.08 0.07 0.08 0.08 0.04 0.03 0.03 0.02 0.01 0.01 0.01 0.01 0.01 0.01 0.01 0.01 0.01 0.01 0.01 0.00 0.01 0.02 0.02 0.02 0.01 0.01 0.01 0.01 0.01 0.01 0.01 0.01 0.01 0.02 0.03 0.03 0.03 0.03 0.03 0.03 0.03 0.02 0.02 0.01 0.00 0.00 0.00 0.00 0.00
0.10 0.08 0.07 0.07 0.03 0.01 0.02 0.02 0.02 0.02 0.01 0.01 0.01 0.01 0.01 0.01 0.01 0.01 0.01 0.01 0.02 0.03 0.03 0.03 0.02 0.02 0.03 0.02 0.01 0.01 0.01 0.01 0.02 0.02 0.03 0.03 0.03 0.03 0.03 0.03 0.02 0.02 0.02 0.01 0.00 0.00 0.00 0.00 0.00
0.09 0.08 0.06 0.05 0.03 0.01 0.01 0.02 0.02 0.03 0.02 0.01 0.02 0.02 0.02 0.02 0.03 0.01 0.01 0.02 0.02 0.03 0.06 0.05 0.03 0.03 0.02 0.02 0.02 0.02 0.02 0.02 0.02 0.03 0.04 0.04 0.03 0.03 0.03 0.03 0.02 0.01 0.02 0.01 0.00 0.00 0.00 0.00 0.00
0.07 0.06 0.05 0.04 0.04 0.02 0.01 0.02 0.02 0.03 0.03 0.02 0.04 0.04 0.03 0.04 0.04 0.03 0.02 0.04 0.04 0.06 0.10 0.07 0.05 0.04 0.04 0.06 0.05 0.04 0.03 0.03 0.04 0.05 0.05 0.04 0.04 0.04 0.03 0.03 0.02 0.02 0.02 0.01 0.00 0.00 0.00 0.00 0.00
0.07 0.06 0.04 0.04 0.05 0.03 0.01 0.02 0.02 0.04 0.05 0.03 0.04 0.05 0.04 0.05 0.06 0.06 0.06 0.07 0.07 0.10 0.13 0.11 0.07 0.05 0.05 0.05 0.05 0.04 0.04 0.03 0.04 0.05 0.05 0.04 0.04 0.04 0.03 0.02 0.02 0.02 0.01 0.01 0.00 0.00 0.00 0.00 0.00
0.07 0.07 0.04 0.03 0.05 0.05 0.03 0.03 0.03 0.05 0.07 0.05 0.05 0.06 0.04 0.05 0.08 0.11 0.13 0.12 0.13 0.14 0.18 0.18 0.13 0.10 0.07 0.06 0.04 0.04 0.03 0.03 0.04 0.04 0.03 0.05 0.05 0.04 0.03 0.02 0.01 0.01 0.01 0.01 0.00 0.00 0.00 0.00 0.00
0.08 0.05 0.03 0.03 0.05 0.06 0.05 0.05 0.06 0.07 0.09 0.09 0.06 0.07 0.07 0.07 0.10 0.12 0.12 0.13 0.16 0.18 0.21 0.22 0.19 0.14 0.11 0.08 0.06 0.06 0.04 0.03 0.04 0.04 0.04 0.05 0.05 0.04 0.02 0.02 0.01 0.01 0.01 0.01 0.01 0.00 0.00 0.00 0.00
0.06 0.04 0.02 0.03 0.05 0.05 0.06 0.07 0.07 0.09 0.10 0.11 0.08 0.08 0.09 0.08 0.11 0.16 0.17 0.15 0.16 0.19 0.23 0.25 0.22 0.19 0.14 0.12 0.10 0.07 0.06 0.04 0.04 0.04 0.04 0.06 0.06 0.04 0.03 0.02 0.02 0.01 0.01 0.01 0.01 0.00 0.00 0.00 0.00
0.04 0.04 0.03 0.04 0.04 0.05 0.07 0.08 0.09 0.12 0.10 0.11 0.10 0.08 0.09 0.10 0.11 0.15 0.20 0.19 0.21 0.23 0.24 0.27 0.25 0.23 0.18 0.14 0.12 0.12 0.09 0.05 0.04 0.04 0.04 0.05 0.05 0.03 0.02 0.01 0.01 0.01 0.01 0.01 0.01 0.00 0.00 0.00 0.00
0.03 0.04 0.04 0.05 0.05 0.05 0.08 0.10 0.11 0.14 0.11 0.13 0.15 0.12 0.09 0.12 0.12 0.14 0.19 0.21 0.25 0.26 0.28 0.31 0.30 0.26 0.22 0.17 0.13 0.14 0.15 0.09 0.05 0.04 0.04 0.03 0.03 0.02 0.02 0.01 0.01 0.01 0.01 0.01 0.01 0.00 0.00 0.00 0.00
0.03 0.04 0.06 0.08 0.07 0.06 0.08 0.08 0.10 0.13 0.13 0.16 0.16 0.14 0.13 0.16 0.16 0.14 0.19 0.23 0.27 0.31 0.34 0.36 0.35 0.31 0.28 0.23 0.14 0.13 0.16 0.14 0.10 0.06 0.05 0.04 0.03 0.02 0.01 0.01 0.01 0.01 0.01 0.01 0.01 0.01 0.01 0.01 0.01
0.03 0.04 0.07 0.09 0.07 0.07 0.08 0.09 0.10 0.13 0.16 0.15 0.14 0.14 0.17 0.20 0.21 0.17 0.17 0.23 0.27 0.30 0.36 0.41 0.39 0.37 0.32 0.29 0.18 0.13 0.13 0.13 0.11 0.08 0.05 0.03 0.03 0.02 0.01 0.01 0.01 0.01 0.01 0.01 0.02 0.02 0.01 0.01 0.01
0.03 0.06 0.08 0.07 0.07 0.07 0.08 0.09 0.07 0.10 0.12 0.13 0.14 0.15 0.17 0.19 0.24 0.23 0.20 0.23 0.28 0.30 0.34 0.45 0.44 0.42 0.36 0.34 0.26 0.15 0.13 0.11 0.09 0.08 0.06 0.04 0.03 0.02 0.02 0.01 0.01 0.01 0.01 0.01 0.01 0.01 0.00 0.01 0.00
0.05 0.06 0.06 0.06 0.08 0.08 0.07 0.07 0.06 0.07 0.07 0.09 0.12 0.14 0.16 0.17 0.21 0.27 0.25 0.25 0.28 0.32 0.35 0.44 0.49 0.46 0.42 0.36 0.33 0.21 0.16 0.12 0.08 0.07 0.06 0.05 0.03 0.02 0.02 0.01 0.01 0.01 0.01 0.01 0.00 0.00 0.00 0.00 0.00
0.04 0.03 0.04 0.06 0.07 0.07 0.06 0.06 0.06 0.06 0.05 0.06 0.10 0.14 0.16 0.15 0.16 0.22 0.24 0.28 0.34 0.37 0.39 0.43 0.45 0.46 0.46 0.40 0.37 0.29 0.24 0.17 0.10 0.07 0.05 0.04 0.04 0.03 0.03 0.02 0.02 0.02 0.02 0.01 0.01 0.01 0.01 0.00 0.00
0.03 0.03 0.04 0.05 0.06 0.07 0.06 0.07 0.07 0.06 0.06 0.08 0.11 0.15 0.16 0.14 0.14 0.19 0.21 0.26 0.33 0.41 0.39 0.46 0.48 0.48 0.50 0.44 0.39 0.31 0.24 0.23 0.18 0.11 0.06 0.05 0.05 0.04 0.04 0.03 0.03 0.03 0.03 0.03 0.03 0.03 0.03 0.02 0.02
0.04 0.04 0.05 0.06 0.05 0.06 0.07 0.07 0.06 0.07 0.07 0.08 0.12 0.16 0.15 0.11 0.12 0.17 0.20 0.24 0.28 0.43 0.46 0.45 0.49 0.49 0.51 0.47 0.39 0.32 0.25 0.22 0.21 0.17 0.11 0.06 0.04 0.03 0.03 0.02 0.03 0.03 0.04 0.03 0.03 0.04 0.04 0.05 0.04
0.03 0.04 0.05 0.06 0.05 0.04 0.07 0.08 0.06 0.07 0.09 0.09 0.12 0.16 0.14 0.10 0.10 0.15 0.19 0.22 0.24 0.30 0.43 0.48 0.43 0.44 0.42 0.44 0.45 0.35 0.28 0.24 0.21 0.18 0.16 0.10 0.06 0.03 0.02 0.02 0.03 0.03 0.04 0.04 0.04 0.04 0.04 0.04 0.05
0.03 0.03 0.04 0.04 0.06 0.07 0.08 0.13 0.10 0.11 0.13 0.12 0.15 0.15 0.14 0.12 0.11 0.12 0.15 0.17 0.21 0.22 0.30 0.46 0.45 0.41 0.40 0.41 0.46 0.41 0.31 0.23 0.20 0.16 0.14 0.14 0.09 0.06 0.04 0.04 0.04 0.04 0.04 0.04 0.04 0.05 0.05 0.06 0.07
0.03 0.03 0.04 0.04 0.05 0.08 0.08 0.12 0.12 0.11 0.14 0.14 0.14 0.13 0.11 0.12 0.12 0.11 0.10 0.11 0.15 0.17 0.22 0.38 0.46 0.44 0.41 0.37 0.38 0.38 0.32 0.29 0.24 0.21 0.16 0.16 0.14 0.10 0.07 0.05 0.06 0.06 0.06 0.06 0.05 0.05 0.05 0.06 0.07
0.02 0.03 0.05 0.05 0.06 0.11 0.09 0.10 0.09 0.10 0.12 0.11 0.10 0.10 0.09 0.10 0.09 0.09 0.09 0.09 0.11 0.13 0.18 0.32 0.41 0.41 0.40 0.36 0.33 0.31 0.28 0.30 0.26 0.22 0.21 0.17 0.15 0.12 0.11 0.09 0.08 0.07 0.08 0.08 0.07 0.06 0.06 0.06 0.07
0.02 0.05 0.07 0.08 0.08 0.09 0.05 0.05 0.09 0.08 0.09 0.08 0.08 0.09 0.08 0.07 0.06 0.06 0.07 0.07 0.09 0.10 0.13 0.23 0.29 0.33 0.36 0.35 0.32 0.31 0.27 0.27 0.28 0.24 0.21 0.18 0.15 0.12 0.10 0.09 0.09 0.07 0.07 0.07 0.08 0.09 0.09 0.09 0.08
0.02 0.04 0.06 0.07 0.05 0.04 0.03 0.08 0.11 0.08 0.08 0.08 0.08 0.08 0.09 0.10 0.08 0.06 0.06 0.07 0.08 0.09 0.10 0.15 0.18 0.22 0.27 0.30 0.30 0.28 0.26 0.22 0.24 0.26 0.25 0.23 0.19 0.16 0.13 0.11 0.09 0.09 0.09 0.08 0.08 0.09 0.09 0.09 0.08
0.02 0.02 0.02 0.03 0.02 0.03 0.05 0.07 0.09 0.09 0.08 0.08 0.07 0.08 0.10 0.09 0.07 0.07 0.09 0.10 0.08 0.08 0.08 0.10 0.12 0.14 0.16 0.21 0.25 0.23 0.21 0.18 0.19 0.22 0.21 0.22 0.23 0.22 0.19 0.16 0.12 0.12 0.11 0.11 0.10 0.08 0.07 0.08 0.07
0.01 0.01 0.01 0.02 0.03 0.03 0.04 0.07 0.12 0.11 0.09 0.07 0.06 0.07 0.09 0.09 0.09 0.10 0.13 0.12 0.08 0.07 0.07 0.08 0.06 0.07 0.07 0.10 0.15 0.18 0.16 0.16 0.17 0.18 0.17 0.16 0.18 0.21 0.21 0.20 0.17 0.16 0.15 0.14 0.14 0.12 0.10 0.10 0.09
0.01 0.01 0.01 0.01 0.01 0.02 0.04 0.09 0.12 0.10 0.08 0.05 0.05 0.07 0.08 0.08 0.09 0.11 0.12 0.10 0.08 0.08 0.07 0.05 0.04 0.04 0.04 0.05 0.09 0.13 0.14 0.15 0.18 0.16 0.15 0.17 0.17 0.16 0.18 0.19 0.17 0.17 0.17 0.17 0.16 0.15 0.13 0.11 0.10
0.01 0.01 0.01 0.01 0.01 0.02 0.03 0.07 0.08 0.07 0.05 0.04 0.05 0.05 0.06 0.07 0.08 0.10 0.11 0.08 0.07 0.07 0.05 0.04 0.03 0.03 0.03 0.03 0.05 0.08 0.10 0.13 0.16 0.16 0.14 0.14 0.16 0.15 0.14 0.15 0.14 0.12 0.11 0.11 0.11 0.11 0.11 0.11 0.10
MSLP
1012.87 1013.21 1013.51 1013.65 1013.53 1013.12 1012.45 1011.58 1010.63 1009.73 1008.97 1008.42 1008.06 1007.83 1007.64 1007.41 1007.08 1006.62 1006.08 1005.55 1005.14 1004.94 1005.02 1005.38 1005.99 1006.75 1007.55 1008.30 1008.93 1009.43 1009.82 1010.14 1010.47 1010.84 1011.28 1011.79 1012.33 1012.86 1013.33 1013.72 1014.03 1014.27 1014.48 1014.70 1014.95 1015.23 1015.53 1015.83 1016.11
1013.15 1013.49 1013.72 1013.74 1013.49 1012.93 1012.12 1011.14 1010.11 1009.17 1008.42 1007.89 1007.57 1007.39 1007.26 1007.07 1006.77 1006.35 1005.84 1005.34 1004.95 1004.76 1004.85 1005.22 1005.82 1006.58 1007.39 1008.15 1008.81 1009.36 1009.79 1010.16 1010.53 1010.92 1011.37 1011.87 1012.39 1012.89 1013.34 1013.73 1014.05 1014.33 1014.60 1014.87 1015.17 1015.48 1015.79 1016.09 1016.35
1013.50 1013.78 1013.91 1013.81 1013.41 1012.73 1011.81 1010.77 1009.72 1008.80 1008.08 1007.61 1007.34 1007.20 1007.09 1006.93 1006.64 1006.22 1005.73 1005.24 1004.87 1004.69 1004.78 1005.14 1005.72 1006.46 1007.25 1008.01 1008.68 1009.25 1009.72 1010.13 1010.53 1010.95 1011.41 1011.89 1012.38 1012.85 1013.29 1013.68 1014.03 1014.36 1014.70 1015.04 1015.40 1015.75 1016.08 1016.37 1016.61
1013.88 1014.07 1014.09 1013.85 1013.33 1012.54 1011.57 1010.51 1009.49 1008.63 1007.98 1007.57 1007.35 1007.24 1007.14 1006.97 1006.68 1006.26 1005.78 1005.31 1004.95 1004.79 1004.88 1005.21 1005.76 1006.45 1007.18 1007.90 1008.55 1009.12 1009.61 1010.06 1010.49 1010.93 1011.39 1011.87 1012.34 1012.79 1013.21 1013.62 1014.01 1014.40 1014.81 1015.23 1015.65 1016.06 1016.41 1016.69 1016.90
1014.24 1014.33 1014.22 1013.86 1013.24 1012.39 1011.41 1010.38 1009.44 1008.66 1008.10 1007.75 1007.57 1007.46 1007.35 1007.16 1006.85 1006.44 1005.97 1005.54 1005.22 1005.09 1005.17 1005.49 1005.98 1006.58 1007.24 1007.88 1008.47 1009.00 1009.49 1009.95 1010.41 1010.87 1011.35 1011.82 1012.29 1012.73 1013.16 1013.58 1014.01 1014.47 1014.95 1015.45 1015.94 1016.39 1016.77 1017.05 1017.23
1014.50 1014.49 1014.27 1013.82 1013.14 1012.28 1011.33 1010.38 1009.54 1008.87 1008.40 1008.10 1007.93 1007.81 1007.67 1007.44 1007.11 1006.70 1006.28 1005.90 1005.64 1005.55 1005.66 1005.94 1006.37 1006.88 1007.42 1007.94 1008.44 1008.91 1009.36 1009.82 1010.30 1010.79 1011.29 1011.79 1012.27 1012.72 1013.16 1013.61 1014.08 1014.59 1015.13 1015.69 1016.24 1016.72 1017.12 1017.40 1017.57
1014.61 1014.52 1014.22 1013.71 1013.02 1012.19 1011.32 1010.49 1009.77 1009.20 1008.81 1008.55 1008.37 1008.21 1008.01 1007.73 1007.38 1006.99 1006.62 1006.32 1006.14 1006.12 1006.26 1006.53 1006.89 1007.28 1007.69 1008.08 1008.45 1008.84 1009.24 1009.69 1010.18 1010.71 1011.25 1011.77 1012.28 1012.76 1013.22 1013.69 1014.20 1014.74 1015.33 1015.93 1016.51 1017.02 1017.42 1017.70 1017.86
1014.57 1014.40 1014.05 1013.53 1012.87 1012.12 1011.36 1010.66 1010.06 1009.60 1009.27 1009.02 1008.81 1008.58 1008.31 1007.97 1007.60 1007.24 1006.93 1006.72 1006.64 1006.70 1006.88 1007.13 1007.42 1007.71 1007.97 1008.22 1008.47 1008.76 1009.11 1009.54 1010.05 1010.61 1011.20 1011.78 1012.33 1012.84 1013.33 1013.82 1014.34 1014.90 1015.51 1016.13 1016.72 1017.23 1017.64 1017.91 1018.07
1014.39 1014.17 1013.80 1013.29 1012.69 1012.04 1011.41 1010.84 1010.37 1010.00 1009.70 1009.44 1009.18 1008.87 1008.52 1008.12 1007.73 1007.39 1007.14 1007.02 1007.05 1007.19 1007.41 1007.65 1007.88 1008.06 1008.19 1008.30 1008.43 1008.62 1008.93 1009.35 1009.88 1010.49 1011.13 1011.77 1012.37 1012.92 1013.44 1013.95 1014.48 1015.04 1015.64 1016.25 1016.83 1017.34 1017.74 1018.01 1018.16
1014.14 1013.89 1013.51 1013.03 1012.49 1011.94 1011.43 1010.98 1010.61 1010.31 1010.03 1009.75 1009.42 1009.03 1008.60 1008.14 1007.73 1007.41 1007.22 1007.18 1007.29 1007.50 1007.75 1007.98 1008.15 1008.23 1008.25 1008.24 1008.27 1008.39 1008.65 1009.07 1009.64 1010.30 1011.01 1011.71 1012.36 1012.96 1013.51 1014.03 1014.56 1015.12 1015.70 1016.29 1016.85 1017.34 1017.72 1017.99 1018.15
1013.91 1013.62 1013.23 1012.77 1012.28 1011.81 1011.38 1011.03 1010.73 1010.47 1010.19 1009.87 1009.48 1009.02 1008.51 1008.01 1007.58 1007.27 1007.13 1007.16 1007.33 1007.58 1007.85 1008.06 1008.17 1008.17 1008.09 1007.99 1007.94 1008.01 1008.26 1008.69 1009.29 1010.01 1010.78 1011.55 1012.26 1012.91 1013.49 1014.03 1014.57 1015.12 1015.68 1016.24 1016.77 1017.24 1017.61 1017.87 1018.04
1013.77 1013.43 1013.00 1012.53 1012.06 1011.62 1011.24 1010.92 1010.65 1010.39 1010.10 1009.75 1009.30 1008.79 1008.23 1007.70 1007.27 1006.98 1006.88 1006.95 1007.15 1007.43 1007.69 1007.86 1007.92 1007.85 1007.70 1007.54 1007.44 1007.49 1007.73 1008.19 1008.84 1009.61 1010.44 1011.27 1012.04 1012.74 1013.36 1013.93 1014.48 1015.02 1015.58 1016.12 1016.64 1017.09 1017.45 1017.71 1017.90
1013.76 1013.35 1012.87 1012.35 1011.84 1011.37 1010.96 1010.62 1010.33 1010.04 1009.71 1009.32 1008.84 1008.30 1007.74 1007.22 1006.80 1006.54 1006.47 1006.57 1006.79 1007.05 1007.29 1007.43 1007.43 1007.31 1007.12 1006.92 1006.81 1006.85 1007.12 1007.60 1008.29 1009.11 1009.99 1010.87 1011.69 1012.44 1013.10 1013.70 1014.28 1014.84 1015.41 1015.96 1016.47 1016.92 1017.29 1017.56 1017.76
1013.88 1013.40 1012.83 1012.21 1011.60 1011.02 1010.52 1010.09 1009.72 1009.37 1009.00 1008.57 1008.09 1007.56 1007.02 1006.55 1006.18 1005.97 1005.94 1006.05 1006.27 1006.52 1006.72 1006.82 1006.78 1006.63 1006.41 1006.21 1006.10 1006.17 1006.46 1006.98 1007.70 1008.56 1009.47 1010.39 1011.25 1012.03 1012.73 1013.38 1013.99 1014.60 1015.19 1015.77 1016.30 1016.77 1017.16 1017.46 1017.68
1014.10 1013.53 1012.85 1012.10 1011.33 1010.61 1009.95 1009.37 1008.88 1008.43 1007.99 1007.55 1007.07 1006.59 1006.12 1005.72 1005.44 1005.30 1005.31 1005.45 1005.67 1005.90 1006.07 1006.13 1006.07 1005.90 1005.69 1005.51 1005.43 1005.54 1005.86 1006.41 1007.15 1008.02 1008.96 1009.88 1010.76 1011.57 1012.31 1013.00 1013.66 1014.30 1014.95 1015.57 1016.15 1016.66 1017.09 1017.42 1017.68
1014.33 1013.68 1012.88 1011.98 1011.04 1010.12 1009.28 1008.53 1007.88 1007.31 1006.80 1006.33 1005.89 1005.46 1005.09 1004.80 1004.62 1004.57 1004.64 1004.82 1005.05 1005.26 1005.41 1005.45 1005.38 1005.22 1005.04 1004.90 1004.88 1005.03 1005.40 1005.97 1006.73 1007.59 1008.52 1009.43 1010.31 1011.12 1011.88 1012.60 1013.30 1014.00 1014.69 1015.37 1016.01 1016.58 1017.06 1017.45 1017.74
1014.48 1013.77 1012.87 1011.82 1010.72 1009.61 1008.57 1007.64 1006.83 1006.14 1005.56 1005.07 1004.65 1004.29 1004.02 1003.84 1003.78 1003.82 1003.97 1004.19 1004.43 1004.65 1004.79 1004.83 1004.78 1004.66 1004.52 1004.45 1004.49 1004.71 1005.12 1005.71 1006.47 1007.32 1008.21 1009.10 1009.95 1010.75 1011.51 1012.24 1012.97 1013.70 1014.45 1015.18 1015.87 1016.50 1017.05 1017.49 1017.84
1014.49 1013.74 1012.77 1011.62 1010.38 1009.13 1007.93 1006.83 1005.88 1005.08 1004.42 1003.90 1003.49 1003.20 1003.02 1002.94 1002.97 1003.11 1003.33 1003.59 1003.85 1004.08 1004.23 1004.30 1004.28 1004.21 1004.15 1004.16 1004.28 1004.57 1005.03 1005.65 1006.40 1007.23 1008.09 1008.93 1009.74 1010.50 1011.24 1011.96 1012.69 1013.44 1014.21 1014.98 1015.72 1016.41 1017.01 1017.51 1017.91
1014.29 1013.54 1012.55 1011.36 1010.05 1008.71 1007.41 1006.20 1005.14 1004.25 1003.53 1002.97 1002.56 1002.30 1002.17 1002.16 1002.26 1002.46 1002.73 1003.02 1003.31 1003.55 1003.73 1003.83 1003.86 1003.87 1003.89 1003.99 1004.21 1004.57 1005.09 1005.74 1006.49 1007.30 1008.12 1008.91 1009.66 1010.38 1011.07 1011.77 1012.48 1013.22 1013.99 1014.77 1015.53 1016.25 1016.90 1017.46 1017.92
1013.87 1013.16 1012.20 1011.04 1009.74 1008.40 1007.07 1005.82 1004.70 1003.75 1002.97 1002.37 1001.94 1001.66 1001.53 1001.54 1001.67 1001.89 1002.17 1002.48 1002.78 1003.04 1003.24 1003.38 1003.47 1003.56 1003.68 1003.88 1004.19 1004.64 1005.21 1005.90 1006.67 1007.46 1008.25 1009.00 1009.70 1010.37 1011.01 1011.66 1012.33 1013.03 1013.77 1014.54 1015.30 1016.04 1016.71 1017.32 1017.83
1013.25 1012.60 1011.72 1010.65 1009.45 1008.19 1006.93 1005.71 1004.60 1003.63 1002.81 1002.15 1001.66 1001.32 1001.15 1001.11 1001.21 1001.40 1001.65 1001.95 1002.24 1002.50 1002.72 1002.90 1003.06 1003.22 1003.43 1003.73 1004.14 1004.67 1005.31 1006.04 1006.83 1007.62 1008.39 1009.12 1009.79 1010.41 1011.01 1011.60 1012.22 1012.88 1013.57 1014.29 1015.03 1015.75 1016.43 1017.06 1017.61
1012.47 1011.89 1011.13 1010.22 1009.18 1008.08 1006.95 1005.85 1004.79 1003.83 1002.99 1002.27 1001.69 1001.27 1000.99 1000.86 1000.86 1000.98 1001.18 1001.42 1001.68 1001.94 1002.17 1002.38 1002.59 1002.82 1003.11 1003.49 1003.98 1004.58 1005.29 1006.06 1006.88 1007.69 1008.46 1009.17 1009.83 1010.43 1010.99 1011.55 1012.12 1012.72 1013.37 1014.04 1014.73 1015.41 1016.08 1016.71 1017.29
1011.60 1011.10 1010.48 1009.75 1008.93 1008.04 1007.10 1006.15 1005.20 1004.29 1003.43 1002.65 1001.98 1001.43 1001.02 1000.76 1000.64 1000.65 1000.75 1000.93 1001.15 1001.37 1001.61 1001.83 1002.08 1002.36 1002.71 1003.15 1003.70 1004.36 1005.11 1005.92 1006.76 1007.59 1008.37 1009.10 1009.75 1010.35 1010.90 1011.44 1011.99 1012.55 1013.15 1013.77 1014.41 1015.05 1015.70 1016.32 1016.91
1010.72 1010.30 1009.82 1009.29 1008.69 1008.04 1007.33 1006.56 1005.74 1004.89 1004.04 1003.21 1002.44 1001.76 1001.21 1000.80 1000.54 1000.43 1000.43 1000.53 1000.69 1000.89 1001.10 1001.33 1001.60 1001.90 1002.29 1002.76 1003.34 1004.02 1004.79 1005.62 1006.47 1007.31 1008.11 1008.85 1009.52 1010.13 1010.70 1011.25 1011.79 1012.34 1012.91 1013.49 1014.10 1014.71 1015.32 1015.93 1016.52
1009.93 1009.57 1009.22 1008.87 1008.50 1008.08 1007.59 1007.01 1006.33 1005.57 1004.73 1003.87 1003.02 1002.23 1001.55 1001.00 1000.61 1000.39 1000.29 1000.32 1000.42 1000.58 1000.77 1000.99 1001.25 1001.56 1001.94 1002.41 1002.98 1003.65 1004.40 1005.22 1006.05 1006.89 1007.69 1008.44 1009.13 1009.77 1010.37 1010.94 1011.51 1012.07 1012.64 1013.22 1013.81 1014.40 1014.99 1015.58 1016.17
1009.30 1008.99 1008.76 1008.57 1008.40 1008.19 1007.90 1007.49 1006.95 1006.27 1005.47 1004.60 1003.70 1002.84 1002.06 1001.41 1000.92 1000.60 1000.43 1000.39 1000.44 1000.56 1000.72 1000.92 1001.15 1001.44 1001.79 1002.22 1002.75 1003.37 1004.06 1004.82 1005.61 1006.41 1007.18 1007.93 1008.63 1009.29 1009.93 1010.54 1011.15 1011.76 1012.36 1012.96 1013.56 1014.15 1014.74 1015.33 1015.91
1008.92 1008.65 1008.51 1008.46 1008.44 1008.40 1008.28 1008.02 1007.61 1007.02 1006.27 1005.42 1004.51 1003.61 1002.79 1002.09 1001.54 1001.16 1000.94 1000.85 1000.86 1000.93 1001.06 1001.21 1001.41 1001.64 1001.93 1002.30 1002.75 1003.28 1003.89 1004.56 1005.26 1005.98 1006.70 1007.41 1008.09 1008.77 1009.43 1010.09 1010.75 1011.41 1012.07 1012.71 1013.35 1013.97 1014.57 1015.17 1015.76
1008.83 1008.61 1008.54 1008.58 1008.68 1008.77 1008.78 1008.65 1008.34 1007.84 1007.17 1006.36 1005.49 1004.61 1003.79 1003.08 1002.52 1002.11 1001.86 1001.74 1001.71 1001.75 1001.82 1001.93 1002.06 1002.22 1002.44 1002.71 1003.06 1003.49 1003.98 1004.53 1005.11 1005.73 1006.35 1006.99 1007.63 1008.28 1008.95 1009.64 1010.35 1011.07 1011.79 1012.49 1013.18 1013.85 1014.48 1015.10 1015.71
1009.06 1008.89 1008.88 1009.00 1009.17 1009.35 1009.45 1009.41 1009.20 1008.79 1008.20 1007.47 1006.67 1005.85 1005.08 1004.41 1003.87 1003.47 1003.21 1003.06 1002.99 1002.97 1002.99 1003.03 1003.09 1003.17 1003.30 1003.48 1003.71 1004.02 1004.38 1004.79 1005.25 1005.73 1006.23 1006.77 1007.33 1007.94 1008.58 1009.28 1010.01 1010.77 1011.55 1012.32 1013.07 1013.78 1014.46 1015.11 1015.75
1009.58 1009.47 1009.51 1009.68 1009.91 1010.14 1010.30 1010.33 1010.20 1009.87 1009.38 1008.76 1008.05 1007.33 1006.64 1006.03 1005.53 1005.15 1004.88 1004.70 1004.58 1004.51 1004.45 1004.41 1004.39 1004.39 1004.42 1004.51 1004.64 1004.83 1005.07 1005.35 1005.67 1006.01 1006.39 1006.81 1007.27 1007.80 1008.39 1009.06 1009.80 1010.58 1011.39 1012.20 1013.00 1013.76 1014.48 1015.17 1015.83
Thickness
5653 5656 5658 5653 5643 5642 5659 5686 5704 5712 5723 5738 5745 5746 5746 5745 5741 5735 5762 5779 5782 5779 5775 5771 5769 5767 5766 5765 5764 5763 5761 5760 5758 5756 5754 5752 5751 5749 5747 5746 5744 5743 5741 5740 5738 5736 5735 5733 5732
5642 5645 5641 5635 5629 5633 5658 5681 5689 5704 5717 5729 5735 5737 5738 5740 5750 5750 5759 5769 5774 5772 5769 5765 5764 5762 5761 5760 5759 5758 5757 5756 5754 5753 5751 5749 5747 5746 5744 5743 5741 5739 5738 5736 5734 5733 5731 5730 5728
5629 5631 5623 5620 5624 5637 5658 5679 5687 5697 5708 5713 5716 5725 5728 5731 5741 5743 5752 5762 5764 5764 5762 5760 5757 5756 5756 5755 5754 5753 5753 5751 5750 5749 5747 5746 5744 5742 5741 5739 5737 5736 5734 5732 5730 5729 5727 5726 5725
5615 5611 5608 5608 5621 5641 5653 5664 5672 5678 5687 5698 5701 5704 5718 5732 5734 5738 5747 5752 5753 5755 5755 5752 5751 5750 5750 5749 5749 5748 5748 5747 5746 5745 5743 5742 5740 5739 5737 5735 5733 5732 5730 5728 5727 5725 5723 5722 5721
5599 5595 5591 5598 5613 5631 5645 5653 5656 5659 5667 5679 5684 5684 5695 5717 5726 5732 5736 5741 5743 5745 5747 5745 5744 5743 5744 5744 5743 5743 5743 5742 5742 5740 5739 5738 5736 5734 5733 5731 5729 5728 5726 5724 5723 5721 5719 5718 5717
5582 5582 5581 5589 5603 5619 5631 5639 5640 5644 5653 5664 5667 5669 5681 5702 5710 5716 5724 5729 5733 5735 5737 5737 5737 5737 5737 5738 5738 5738 5738 5737 5737 5736 5735 5733 5732 5730 5728 5727 5725 5724 5722 5720 5719 5718 5716 5714 5713
5569 5570 5574 5582 5591 5604 5619 5626 5626 5630 5637 5648 5654 5653 5666 5684 5695 5705 5713 5718 5721 5725 5728 5729 5729 5730 5731 5732 5732 5732 5732 5732 5732 5731 5730 5729 5727 5725 5724 5722 5721 5719 5718 5716 5715 5714 5712 5711 5710
5562 5560 5566 5572 5577 5589 5602 5610 5616 5617 5625 5639 5643 5640 5650 5668 5682 5691 5699 5705 5709 5714 5718 5720 5722 5723 5724 5725 5726 5726 5726 5726 5726 5726 5725 5723 5722 5721 5719 5718 5716 5715 5714 5712 5711 5710 5708 5707 5706
5553 5547 5555 5565 5570 5578 5589 5591 5597 5606 5612 5622 5630 5635 5646 5659 5667 5674 5681 5690 5697 5702 5708 5710 5713 5717 5719 5719 5720 5720 5720 5721 5721 5720 5719 5718 5717 5716 5714 5713 5712 5711 5710 5708 5707 5706 5704 5703 5703
5542 5541 5553 5563 5566 5568 5573 5575 5579 5584 5592 5603 5613 5626 5637 5644 5651 5657 5665 5674 5683 5690 5698 5702 5705 5709 5713 5714 5714 5714 5715 5715 5716 5716 5715 5714 5714 5712 5711 5709 5708 5706 5705 5704 5703 5702 5700 5700 5699
5541 5543 5552 5555 5557 5558 5559 5562 5567 5568 5576 5588 5597 5609 5621 5629 5637 5645 5654 5664 5673 5683 5690 5695 5698 5702 5706 5709 5709 5710 5711 5711 5712 5712 5711 5711 5710 5709 5707 5705 5703 5702 5701 5700 5699 5697 5697 5697 5697
5539 5543 5546 5548 5548 5548 5548 5551 5555 5560 5571 5582 5591 5601 5608 5617 5626 5635 5643 5654 5662 5671 5680 5687 5692 5695 5700 5703 5705 5706 5707 5708 5709 5709 5708 5708 5707 5706 5704 5702 5700 5699 5698 5697 5695 5695 5695 5695 5695
5535 5537 5541 5543 5542 5541 5542 5543 5546 5555 5567 5576 5583 5592 5598 5607 5617 5627 5636 5645 5652 5661 5671 5677 5685 5688 5693 5697 5700 5702 5702 5704 5705 5706 5705 5705 5704 5703 5701 5700 5698 5697 5696 5694 5693 5693 5693 5693 5693
5532 5533 5534 5535 5536 5537 5537 5540 5543 5553 5561 5568 5575 5583 5591 5599 5608 5616 5625 5635 5642 5652 5662 5669 5677 5682 5687 5691 5695 5697 5698 5700 5701 5701 5701 5701 5701 5700 5698 5697 5695 5695 5693 5692 5691 5691 5690 5690 5690
5529 5525 5528 5531 5534 5536 5534 5536 5543 5551 5557 5563 5570 5577 5585 5594 5601 5609 5619 5627 5634 5643 5653 5661 5670 5676 5680 5684 5688 5692 5694 5695 5696 5697 5697 5697 5697 5697 5695 5693 5692 5691 5690 5689 5688 5687 5687 5686 5686
5523 5520 5520 5532 5536 5535 5527 5529 5544 5549 5553 5557 5565 5572 5580 5588 5596 5604 5612 5620 5628 5635 5645 5652 5662 5667 5672 5676 5680 5685 5688 5689 5691 5692 5692 5692 5693 5692 5691 5689 5688 5687 5686 5685 5684 5683 5681 5681 5680
5519 5515 5520 5529 5534 5531 5525 5529 5543 5549 5551 5556 5562 5569 5576 5583 5592 5600 5607 5614 5621 5628 5637 5644 5653 5659 5664 5668 5672 5678 5681 5682 5684 5686 5686 5687 5688 5687 5686 5684 5684 5683 5682 5681 5680 5679 5677 5675 5674
5514 5515 5519 5521 5528 5528 5526 5531 5541 5547 5551 5555 5560 5566 5573 5579 5587 5594 5601 5608 5615 5622 5629 5637 5645 5651 5657 5662 5666 5669 5671 5673 5676 5679 5680 5681 5682 5682 5681 5679 5679 5678 5677 5676 5675 5674 5673 5671 5669
5516 5515 5515 5523 5528 5526 5527 5532 5540 5547 5551 5554 5558 5564 5570 5576 5584 5591 5597 5603 5609 5616 5623 5631 5637 5644 5650 5655 5657 5660 5662 5665 5669 5672 5674 5675 5675 5675 5674 5674 5673 5673 5672 5671 5670 5668 5666 5665 5665
5517 5514 5517 5524 5529 5528 5529 5534 5542 5548 5551 5555 5559 5564 5569 5574 5580 5586 5592 5597 5603 5609 5617 5624 5631 5637 5643 5649 5652 5655 5658 5660 5662 5665 5667 5669 5669 5669 5668 5668 5667 5667 5666 5665 5664 5663 5660 5659 5659
5518 5518 5519 5521 5528 5533 5530 5532 5540 5547 5552 5556 5561 5564 5567 5571 5575 5581 5586 5592 5598 5605 5612 5620 5625 5631 5637 5641 5645 5648 5650 5651 5653 5656 5658 5661 5662 5662 5662 5662 5662 5661 5660 5659 5658 5657 5655 5652 5652
5516 5525 5524 5525 5521 5520 5528 5522 5534 5543 5547 5552 5556 5560 5564 5569 5573 5578 5583 5588 5593 5599 5607 5614 5620 5627 5632 5636 5639 5642 5645 5646 5649 5652 5653 5654 5656 5656 5655 5655 5655 5654 5654 5653 5652 5652 5650 5648 5645
5521 5527 5526 5527 5523 5519 5528 5524 5531 5540 5542 5546 5552 5557 5562 5567 5571 5575 5580 5586 5591 5596 5603 5610 5615 5622 5628 5631 5634 5636 5639 5640 5643 5646 5646 5646 5648 5648 5648 5648 5648 5647 5646 5646 5646 5645 5644 5643 5641
5525 5527 5529 5531 5526 5521 5534 5532 5530 5533 5536 5543 5549 5554 5558 5564 5569 5573 5578 5583 5587 5593 5600 5607 5611 5616 5621 5624 5627 5629 5632 5634 5635 5638 5638 5638 5639 5640 5640 5640 5640 5639 5638 5638 5638 5638 5637 5636 5634
5523 5516 5516 5520 5521 5527 5540 5536 5528 5533 5537 5542 5546 5549 5554 5559 5564 5569 5574 5579 5584 5590 5596 5602 5605 5609 5614 5618 5621 5622 5625 5628 5628 5630 5631 5631 5631 5631 5631 5632 5631 5630 5630 5630 5630 5629 5628 5628 5626
5520 5518 5510 5512 5519 5527 5537 5530 5527 5532 5538 5542 5544 5547 5551 5554 5559 5564 5570 5575 5580 5585 5589 5595 5599 5603 5606 5610 5613 5614 5617 5619 5620 5621 5622 5622 5622 5624 5623 5623 5622 5621 5621 5620 5619 5619 5619 5618 5618
5520 5519 5522 5517 5525 5523 5531 5532 5530 5534 5536 5538 5541 5543 5545 5550 5554 5560 5565 5569 5574 5578 5583 5588 5592 5596 5599 5602 5604 5606 5608 5609 5610 5611 5612 5611 5611 5613 5613 5613 5612 5612 5611 5609 5608 5607 5607 5607 5606
5523 5524 5520 5521 5523 5524 5534 5530 5523 5526 5529 5534 5536 5538 5541 5545 5550 5555 5559 5563 5568 5572 5577 5582 5585 5589 5591 5593 5596 5597 5598 5600 5601 5601 5601 5601 5602 5603 5603 5603 5602 5601 5600 5598 5596 5595 5595 5594 5594
5522 5523 5524 5525 5528 5522 5522 5522 5526 5526 5529 5531 5533 5535 5538 5541 5544 5549 5552 5557 5562 5566 5570 5574 5578 5581 5583 5586 5588 5589 5590 5591 5592 5592 5592 5592 5593 5593 5592 5592 5592 5590 5588 5587 5585 5584 5582 5582 5582
5525 5526 5525 5520 5523 5529 5521 5517 5528 5528 5529 5530 5531 5533 5535 5537 5540 5544 5548 5551 5555 5559 5563 5566 5570 5572 5575 5577 5579 5581 5581 5581 5581 5581 5582 5582 5582 5582 5582 5581 5581 5579 5577 5576 5574 5572 5572 5571 5571